Aeroporto :
LOGIN :

Iscrizione | Disclaimer

   EN    FR    IT 

 










Sommario :    VFR   VFR Marginale   IFR   IFR Intensivo   IFR Molto Intensivo
Visibilità : 
Base nubi : 
>= 8 km
>= 3000ft
5 / 8 km
1000 / 3000 ft
1500m / 5 km
500 / 1000 ft
800 / 1500m
200 / 500 ft
< 800m
< 200 ft
Simboli :   Temporali  Nebbia  Neve Forte  Precipitazioni Forti  Vento > 20 kt
SIGMETs :   Varie  Temporali  Ghiacco  Turbolenza  Onda orograficha  Ceneri Vulcaniche






- Altitudine del aeroporto : 183 ft
- Codice IATA : HAJ


EDDV - Hanover/Langenhagen Int.

ULTIMO METAR :
  • 230450Z 26009KT 9999 FEW045 05/03 Q1022 NOSIG

METARs OBSOLETI :
  • 230420Z 25007KT CAVOK 05/03 Q1022 NOSIG
  • 230350Z 25007KT 230V290 CAVOK 05/03 Q1022 NOSIG
  • 230320Z 26007KT CAVOK 05/03 Q1022
  • 230250Z 26007KT CAVOK 05/03 Q1022
  • 230220Z 26009KT CAVOK 05/03 Q1021

TAF TAF EDDV
Valido dal 23 a 00 ore il 24 a 00 ore UTC


222300Z 2300/2324 26009KT 9999 SCT030
BECMG 2316/2318 19003KT



MetMap, La meteo Aeronautica in un colpo d'occhio ! - Copyright ORBIFLY Dicembre 2007 - Disclaimer

ORBIFLY MET'MAP TEAM :

Programmazione e sviluppo : Alexandra Zaïnal
Concezione : Baudouin d'Aumeries
Aiuto per la programmazione : Marc-Olivier Méhu
Supporto tecnico e logistico : Manuel Goepfert
Aiuto per la traduzione : Arnaldo La Scala

Contatto : metmap@orbifly.com




FONTI E CREDITI :

   NOAA